User: anonymous   Login
Location: Unspecified
(0.0000°N, 0.0000°E)
Time: 22:44:00
(UTC+00:00)
Language:

STEP CUBE LAB - Orbit

View from above orbital plane
View from above orbital plane
View from above satellite
View from above satellite

Ground track
Ground track

The orbit data is extracted from the following two-line orbital elements,

1 43138U 18004AD  18343.88093018  .00001615  00000-0  70701-4 0  9990
2 43138  97.5141  47.0197 0008816 197.0195 163.0747 15.23477499 50465
Epoch (UTC): 09 December 2018 21:08:32
Eccentricity: 0.0008816
inclination: 97.5141°
perigee height: 489 km
apogee height: 501 km
right ascension of ascending node: 47.0197°
argument of perigee: 197.0195°
revolutions per day: 15.23477499
mean anomaly at epoch: 163.0747°
orbit number at epoch: 5046

The dashed part of the orbit path shows where the satellite is in the earth's shadow,  

DLR